North Myrtle Beach, SC

11:37 PM EST on November 14, 2019 (GMT -0500)
Grand Strand

Weather History for KCRE - August, 2019

Change the Weather History Date:

Thursday, August 29, 2019

  Actual Average Record
Temperature  
Mean Temperature 78 °F 78 °F  
Max Temperature 86 °F 86 °F 96 °F (1990)
Min Temperature 70 °F 71 °F 60 °F (1968)
Degree Days  
Heating Degree Days 0 0  
Month to date heating degree days 0 0  
Since 1 June heating degree days 0 0  
Since 1 July heating degree days 0 0  
Cooling Degree Days 13 13  
Month to date cooling degree days 456 406  
Year to date cooling degree days 1748 1451  
Since 1 June cooling degree days 1355 1239  
Growing Degree Days 27 (Base 50)    
Moisture  
Dew Point 68 °F    
Average Humidity 75    
Maximum Humidity 94    
Minimum Humidity 55    
Precipitation  
Precipitation 0.01 in 0.24 in 3.12 in (1964)
Month to date precipitation 8.67 6.92  
Year to date precipitation 31.68 34.86  
Sea Level Pressure  
Sea Level Pressure 29.99 in    
Wind  
Wind Speed 6 mph (NNE)    
Max Wind Speed 14 mph    
Max Gust Speed 18 mph    
Visibility 10 miles    
Events      
T = Trace of Precipitation, MM = Missing Value Source: NWS Daily Summary

Daily Weather History Graph

Daily Weather History Graph

Search for Another Location

Airport or City:

Astronomy

Aug. 29, 2019 Rise Set
Actual Time 6:46 AM EDT 7:44 PM EDT
Civil Twilight 6:20 AM EDT 8:10 PM EDT
Nautical Twilight 5:50 AM EDT 8:40 PM EDT
Astronomical Twilight 5:19 AM EDT 9:11 PM EDT
Moon 5:35 AM EDT (8/29) 7:36 PM EDT (8/29)
Length of Visible Light 13h 49m
Length of Day
12h 58m
Waning Crescent, 1% of the Moon is Illuminated
Aug 29
Waning Crescent
Aug 30
New
Sep 5
First Quarter
Sep 14
Full
Sep 21
Last Quarter

Hourly Weather History & Observations

Time (EDT) Temp. Heat Index Dew Point Humidity Pressure Visibility Wind Dir Wind Speed Gust Speed Precip Events Conditions
12:53 AM 75.0 °F - 73.9 °F 96% 29.91 in 10.0 mi Calm Calm - N/A   Clear
2:53 AM 75.0 °F - 73.0 °F 94% 29.90 in 10.0 mi NW 3.5 mph - N/A   Clear
3:53 AM 73.9 °F - 71.1 °F 91% 29.90 in 10.0 mi NNW 4.6 mph - N/A   Clear
4:53 AM 73.0 °F - 69.1 °F 87% 29.91 in 10.0 mi North 3.5 mph - N/A   Clear
5:53 AM 71.1 °F - 66.9 °F 87% 29.93 in 10.0 mi North 3.5 mph - 0.01 in   Clear
6:53 AM 70.0 °F - 64.9 °F 84% 29.95 in 10.0 mi North 4.6 mph - N/A   Clear
7:53 AM 71.1 °F - 64.9 °F 81% 29.97 in 10.0 mi North 6.9 mph - N/A   Clear
8:53 AM 73.0 °F - 64.9 °F 76% 29.99 in 10.0 mi North 10.4 mph - N/A   Clear
9:53 AM 78.1 °F - 66.0 °F 66% 30.01 in 10.0 mi North 9.2 mph - N/A   Clear
10:53 AM 82.0 °F 84.1 °F 66.0 °F 58% 30.02 in 10.0 mi NNE 10.4 mph - N/A   Clear
11:53 AM 84.0 °F 86.5 °F 66.9 °F 56% 30.03 in 10.0 mi North 8.1 mph - N/A   Clear
12:53 PM 84.9 °F 88.2 °F 68.0 °F 57% 30.03 in 10.0 mi North 4.6 mph - N/A   Scattered Clouds
1:53 PM 84.9 °F 87.6 °F 66.9 °F 55% 30.01 in 10.0 mi SE 11.5 mph - N/A   Scattered Clouds
2:53 PM 84.9 °F 88.2 °F 68.0 °F 57% 30.01 in 10.0 mi SE 10.4 mph - N/A   Clear
3:53 PM 84.9 °F 87.6 °F 66.9 °F 55% 30.00 in 10.0 mi ESE 9.2 mph - N/A   Clear
4:53 PM 84.9 °F 87.6 °F 66.9 °F 55% 29.99 in 10.0 mi ESE 9.2 mph - N/A   Clear
5:53 PM 82.9 °F 85.4 °F 66.9 °F 58% 29.99 in 10.0 mi Variable 5.8 mph - N/A   Clear
6:53 PM 82.0 °F 84.9 °F 68.0 °F 62% 30.00 in 10.0 mi SE 5.8 mph - N/A   Clear
7:53 PM 81.0 °F 83.8 °F 68.0 °F 65% 30.01 in 10.0 mi Variable 4.6 mph - N/A   Clear
8:53 PM 80.1 °F 82.9 °F 69.1 °F 69% 30.04 in 10.0 mi SE 3.5 mph - N/A   Clear
9:53 PM 77.0 °F - 71.1 °F 82% 30.05 in 10.0 mi Calm Calm - N/A   Scattered Clouds
10:53 PM 73.9 °F - 71.1 °F 91% 30.06 in 10.0 mi NNW 5.8 mph - N/A   Clear
11:53 PM 73.0 °F - 70.0 °F 90% 30.06 in 10.0 mi Calm Calm - N/A   Clear